Home   Weather   Toowoomba   Past weeks

Flag for Australia Past Weather in Toowoomba, Queensland, Australia — Yesterday and Last 2 Weeks

Now
74 °F

Mild.


Feels Like: 77 °F
Forecast: 61 / 85 °F
Wind: 17 mph from East

Location: Oakey Aerodrome

Current Time: Feb 23, 2017 at 10:31:33 am

Latest Report: Feb 23, 2017 at 9:00 am


Visibility: N/A

Pressure: 30.09 "Hg (28.09 "Hg at 597m altitude)

Humidity: 52%

Dew Point: 55 °F

Location of ToowoombaLocation

Past Weather in Toowoomba — Graph

°F

Toowoomba Temperature Yesterday

Maximum temperature yesterday: 84 °F (at 4:00 pm)
Minimum temperature yesterday: 67 °F (at 6:00 am)
Average temperature yesterday: 74 °F

High & Low Weather Summary for the Past Weeks

 TemperatureHumidityPressure
High106 °F (Feb 11, 4:00 pm)96% (Feb 19, 10:00 pm)30.09 "Hg (Feb 19, 10:00 pm)
Low59 °F (Feb 23, 6:00 am)14% (Feb 12, 3:00 pm)29.50 "Hg (Feb 12, 4:00 pm)
Average79 °F57%29.85 "Hg
* Reported Feb 8 9:00 am — Feb 23 9:00 am, Toowoomba, Weather by CustomWeather, © 2017

Note: Actual official high and low records may vary slightly from our data, if they occured in-between our weather recording intervals... More about our weather records

Advertising

Toowoomba Weather History for the Previous 24 Hours

Scroll right to see more
 ConditionsComfort  
Time TempWeatherWind HumidityBarometerVisibility
9:00 am
Thu, Feb 23
74 °FMild.17 mph52%30.09 "HgN/A
7:00 am66 °FMild.6 mph76%30.07 "HgN/A
6:00 am59 °FCool.6 mph90%30.05 "HgN/A
4:00 am62 °FCool.2 mph84%30.04 "HgN/A
3:00 am63 °FMild.7 mph83%30.03 "HgN/A
1:00 am67 °FMild.9 mph74%30.06 "HgN/A
12:00 am67 °FMild.13 mph70%30.06 "HgN/A
10:00 pm
Wed, Feb 22
70 °FMild.13 mph69%30.07 "HgN/A
9:00 pm72 °FMild.12 mph67%30.06 "HgN/A
7:00 pm75 °FMild.15 mph59%30.02 "HgN/A
6:00 pm79 °FPassing clouds.14 mph49%29.99 "HgN/A
4:00 pm84 °FPleasantly warm.13 mph39%29.97 "HgN/A
3:00 pm83 °FOvercast.12 mph39%29.98 "HgN/A
1:00 pm83 °FWarm.13 mph46%30.03 "HgN/A
12:00 pm83 °FWarm.17 mph46%30.05 "HgN/A
10:00 am76 °FMild.16 mph54%30.09 "HgN/A
Weather by CustomWeather, © 2017

See weather overviewHow to use our weather pages